Wind_Speed
12 12 12 12 12 12 12 12 12 12 12 12 12 11 11 11 11 11 11 11 11 10 10 10 10 10 11 11 10 10 11 12 12 11 12 12 12 11 11 10 10 9 9 9
13 13 13 13 13 13 13 13 13 13 13 12 12 11 11 11 10 11 11 12 12 11 11 10 10 11 11 11 11 12 12 12 12 12 12 13 12 11 11 11 10 10 9 9
13 13 14 14 14 14 14 14 13 13 12 12 12 11 10 11 11 11 12 12 12 12 12 11 11 12 12 12 12 13 13 13 13 13 13 13 12 12 11 11 11 11 10 9
14 14 15 14 14 14 14 14 14 14 13 12 12 12 10 11 12 11 11 12 12 13 13 12 12 12 12 12 13 13 13 13 13 13 13 13 12 12 12 11 12 11 10 10
15 15 15 15 15 15 15 15 15 14 14 13 13 13 12 12 12 12 12 13 13 14 14 14 14 13 13 13 13 14 13 13 13 13 13 13 13 13 12 12 12 12 11 11
15 15 16 16 16 16 16 16 16 15 15 14 13 14 13 13 13 13 13 14 14 14 14 14 14 14 14 14 14 14 13 13 13 13 13 13 13 13 13 13 13 12 12 11
15 15 15 16 16 16 16 16 16 16 15 15 14 15 14 14 14 14 14 15 15 15 15 15 15 14 14 14 14 14 14 14 15 15 15 14 14 14 14 13 13 12 12 12
16 15 16 16 16 17 16 16 16 16 16 16 15 15 15 16 15 15 15 15 16 15 16 16 15 15 14 14 14 15 15 15 16 16 15 15 15 15 15 14 14 13 13 13
17 16 16 16 16 17 16 16 16 17 17 17 17 17 16 16 16 16 16 17 17 16 16 16 16 15 15 15 15 16 16 17 17 16 16 16 16 16 15 15 15 15 14 14
17 17 17 16 17 17 17 16 17 17 18 18 17 17 17 16 17 17 18 18 18 17 16 16 17 17 17 16 16 16 17 18 17 17 17 17 17 17 16 16 16 16 15 15
18 18 17 18 17 17 17 17 18 18 19 20 19 18 18 18 18 18 18 18 18 18 17 17 17 18 18 17 17 18 17 17 18 18 18 17 17 17 17 17 17 16 16 17
18 19 18 18 19 19 19 19 19 20 20 20 21 19 19 19 18 18 18 18 18 18 17 17 18 18 18 18 18 18 18 18 18 18 18 17 17 18 17 17 17 17 18 18
19 19 19 19 20 20 20 20 21 21 22 22 21 20 20 20 19 19 19 19 19 19 18 18 18 19 18 18 18 18 19 18 18 18 18 17 18 18 18 17 18 19 19 20
20 20 21 20 20 21 21 21 22 23 23 23 22 21 21 21 21 21 21 21 21 20 20 19 19 19 19 19 19 20 19 18 18 18 18 18 19 19 18 19 19 19 20 20
21 22 21 21 22 23 23 23 23 24 24 24 23 23 22 23 23 22 22 22 21 21 21 21 20 20 20 20 20 21 21 20 19 18 19 19 19 19 19 20 20 20 20 20
22 22 22 23 23 24 24 24 24 25 25 26 25 24 24 24 24 23 23 23 22 21 22 22 21 22 22 22 22 22 21 21 20 19 20 20 19 19 19 20 21 21 21 21
22 22 23 23 24 25 25 24 24 25 25 26 25 24 25 25 25 24 24 24 23 22 22 22 22 22 22 23 23 23 22 22 22 21 21 20 20 20 20 21 21 21 21 22
22 23 24 24 24 25 24 24 24 24 24 25 25 25 25 26 25 25 25 25 24 24 24 24 24 24 23 24 24 24 23 23 22 22 22 21 21 22 21 21 21 21 22 22
22 23 24 24 24 25 23 23 24 24 24 24 24 24 25 25 25 25 25 25 24 24 25 25 25 25 24 24 24 24 25 25 24 24 24 23 23 22 22 22 22 23 22 23
23 23 24 24 25 25 23 22 23 24 24 24 24 24 25 25 26 25 25 25 25 25 25 26 26 26 25 25 25 25 26 26 25 25 25 25 24 23 23 23 23 23 23 23
23 24 24 25 26 25 24 24 23 24 23 24 24 25 25 26 26 26 25 25 25 25 25 26 26 27 27 27 27 27 27 27 27 26 26 25 25 24 24 24 24 24 24 23
24 25 25 26 26 26 25 25 25 25 25 25 25 26 27 27 27 26 26 25 26 26 26 26 26 27 27 28 28 28 28 28 28 27 26 26 25 25 25 25 25 25 25 25
25 26 26 27 27 27 27 27 27 27 27 27 27 27 27 27 27 27 27 27 28 28 27 27 28 28 28 28 29 28 28 29 28 27 27 27 26 26 26 26 26 26 26 25
26 26 27 27 26 26 27 27 27 28 28 28 29 28 28 29 28 29 29 28 29 29 28 29 28 28 28 29 29 29 28 28 29 28 27 28 28 28 28 27 27 27 27 26
25 26 27 26 26 26 27 27 28 28 29 29 29 29 29 29 29 29 29 29 29 29 29 30 30 29 29 29 29 29 29 29 28 28 29 29 30 29 29 28 28 28 28 28
26 27 27 26 27 27 27 27 27 28 28 29 29 29 29 29 29 29 29 29 29 30 31 31 31 30 29 29 29 30 30 29 29 29 29 29 30 30 29 29 29 29 29 29
Wind_Direction
272 275 279 281 282 287 292 294 296 294 291 289 290 290 292 292 294 294 293 293 292 295 296 295 295 298 299 300 299 301 305 309 311 308 308 306 305 303 298 294 290 285 282 277
272 275 278 280 284 287 289 291 293 291 288 286 286 288 291 290 293 295 292 289 288 290 293 292 292 291 291 294 295 297 299 302 306 308 307 306 303 301 297 293 290 287 282 278
273 274 277 280 282 285 288 289 289 287 286 286 288 289 291 291 293 293 292 289 289 292 294 291 289 288 287 291 294 297 296 299 301 303 304 305 300 300 297 296 291 287 283 274
272 274 276 279 281 283 285 287 286 283 283 284 286 289 291 294 295 292 292 290 288 290 291 291 290 288 288 291 294 296 296 296 300 301 299 299 300 298 295 293 290 287 282 277
270 272 273 275 278 280 281 283 285 285 283 284 286 289 291 293 294 294 293 292 289 288 290 290 290 289 291 291 292 293 295 295 298 301 298 294 294 294 290 288 287 286 281 278
270 271 272 273 273 277 280 282 282 281 281 283 287 288 288 292 295 295 293 294 291 288 289 291 292 291 289 291 290 290 293 293 296 300 298 295 293 293 291 287 286 282 277 275
271 271 272 273 271 275 278 280 280 279 279 283 287 286 287 291 294 294 294 294 292 291 290 292 293 292 291 292 292 288 291 292 294 297 297 296 293 289 289 286 283 279 274 271
271 271 273 273 273 275 276 277 278 279 280 282 283 286 290 291 294 294 293 293 295 292 291 290 292 292 290 290 290 289 290 290 289 293 295 294 292 288 288 285 282 278 273 272
272 272 273 273 273 272 275 275 276 278 280 283 284 286 288 291 292 292 294 296 297 294 291 289 291 291 290 289 290 291 290 289 287 287 289 290 289 287 286 287 285 281 277 274
273 273 273 273 272 272 274 275 276 278 281 283 284 287 288 288 288 290 292 294 295 294 290 289 289 290 290 289 290 291 292 290 287 285 287 287 287 285 285 286 286 282 276 271
271 272 272 272 271 273 273 273 275 278 281 284 285 287 289 289 288 290 292 292 293 294 289 286 286 287 289 289 289 290 291 289 288 288 286 285 284 281 282 282 282 280 275 271
273 272 271 272 272 271 272 272 274 276 280 282 285 288 289 289 289 290 291 290 291 290 287 285 285 286 287 288 289 289 288 289 288 288 288 287 283 280 280 280 280 278 276 274
274 274 274 273 272 271 271 273 275 277 278 280 283 286 286 287 288 288 289 288 288 287 287 285 284 285 285 286 288 289 288 290 290 290 290 288 285 280 279 281 279 277 276 275
274 275 275 276 275 273 272 272 274 277 279 280 282 283 282 284 285 285 286 287 286 285 285 285 283 284 285 284 285 285 288 290 290 290 289 288 286 283 280 281 282 279 277 276
275 276 275 275 274 273 272 272 274 277 280 281 281 280 280 280 281 283 283 284 285 283 284 285 285 284 284 285 284 283 286 288 288 289 289 287 287 285 283 282 282 281 278 277
275 276 276 275 275 274 273 274 275 276 278 280 280 280 278 278 280 281 282 282 282 283 283 284 284 284 283 284 285 285 285 287 288 288 289 288 288 287 285 284 282 280 278 278
277 279 279 278 276 276 274 276 277 277 278 279 280 280 278 278 279 280 280 280 281 282 282 281 281 281 282 283 284 286 285 286 287 287 289 288 288 287 285 285 284 282 281 279
280 279 281 281 280 278 281 280 279 279 279 279 280 280 279 279 279 279 280 280 281 282 281 280 281 281 282 284 284 284 284 285 287 288 288 287 286 286 286 286 284 284 282 280
280 281 281 281 281 282 282 283 283 281 280 280 280 280 279 279 279 279 279 279 280 281 281 280 280 281 282 283 283 283 284 283 285 288 286 286 287 286 285 285 284 284 282 280
281 281 282 283 283 285 287 286 285 283 281 280 280 280 280 281 280 279 279 279 279 280 280 280 280 280 280 281 282 282 284 284 285 287 287 286 286 286 285 286 285 284 283 282
281 281 281 282 284 286 287 286 285 284 285 284 282 281 281 281 281 280 279 278 278 279 279 280 280 280 280 281 282 282 283 284 284 286 286 285 285 285 284 285 286 285 284 282
282 282 282 283 284 286 287 284 283 283 284 284 284 283 283 282 281 280 279 279 279 279 280 280 279 281 280 280 280 280 281 282 282 283 284 283 283 284 283 282 283 285 284 281
282 282 282 282 283 284 283 283 283 283 284 284 284 284 284 283 281 280 279 279 279 279 279 280 280 280 281 281 280 280 281 282 283 283 282 282 281 282 283 282 282 283 283 280
282 282 283 283 283 282 282 282 283 283 284 284 283 283 283 283 281 281 279 279 278 279 280 280 280 280 280 280 280 280 281 283 282 282 281 282 282 282 284 283 281 281 280 279
284 283 283 283 282 281 282 284 285 286 286 285 284 283 283 283 282 281 279 278 277 278 278 279 279 280 280 279 279 279 281 281 280 280 280 281 282 281 284 285 284 281 279 278
283 284 284 283 283 283 284 286 287 288 287 287 286 284 284 284 283 282 280 280 279 278 279 280 280 279 279 279 280 280 281 280 279 280 281 281 282 282 283 284 284 282 279 278
Height
5859 5860 5859 5859 5859 5858 5857 5857 5856 5855 5854 5853 5853 5852 5851 5850 5849 5849 5848 5847 5846 5845 5844 5843 5842 5841 5840 5839 5838 5837 5836 5835 5833 5832 5831 5829 5828 5827 5826 5825 5824 5823 5823 5823
5857 5857 5857 5856 5856 5855 5855 5854 5853 5853 5851 5850 5850 5849 5848 5847 5846 5846 5845 5844 5843 5842 5841 5840 5839 5838 5837 5837 5836 5835 5834 5832 5831 5829 5828 5827 5826 5824 5823 5822 5821 5821 5820 5820
5853 5854 5853 5853 5853 5852 5852 5851 5851 5850 5849 5848 5847 5847 5846 5845 5844 5843 5842 5841 5840 5839 5838 5837 5836 5835 5834 5834 5833 5832 5831 5829 5828 5827 5825 5824 5823 5821 5820 5819 5819 5818 5817 5817
5850 5850 5850 5850 5850 5849 5849 5848 5847 5846 5846 5845 5845 5844 5844 5842 5841 5840 5839 5838 5837 5836 5835 5834 5833 5832 5831 5830 5830 5828 5827 5826 5825 5824 5822 5821 5820 5819 5817 5817 5816 5815 5815 5814
5847 5847 5847 5847 5847 5846 5845 5845 5844 5843 5842 5842 5842 5841 5842 5840 5838 5838 5836 5835 5834 5833 5832 5831 5830 5829 5828 5827 5826 5825 5824 5822 5821 5820 5819 5818 5816 5815 5814 5813 5813 5812 5811 5811
5843 5843 5843 5843 5843 5842 5842 5841 5841 5840 5839 5839 5839 5838 5838 5837 5836 5834 5833 5832 5830 5829 5828 5827 5826 5825 5824 5823 5822 5821 5820 5819 5818 5816 5815 5814 5813 5812 5811 5810 5809 5808 5808 5808
5839 5839 5839 5839 5839 5839 5838 5838 5837 5836 5836 5836 5835 5834 5835 5833 5832 5831 5830 5828 5827 5826 5825 5824 5823 5821 5820 5819 5818 5818 5817 5816 5814 5813 5811 5810 5809 5808 5807 5806 5805 5805 5805 5804
5835 5836 5836 5835 5835 5835 5834 5834 5834 5833 5832 5832 5831 5830 5831 5830 5828 5827 5826 5824 5823 5822 5821 5819 5818 5817 5816 5815 5814 5813 5812 5811 5810 5809 5807 5806 5805 5804 5803 5802 5801 5801 5801 5800
5831 5832 5832 5831 5831 5831 5830 5830 5830 5829 5828 5828 5827 5827 5827 5825 5824 5823 5822 5820 5819 5818 5816 5815 5814 5813 5812 5811 5810 5809 5808 5807 5806 5805 5803 5802 5801 5800 5799 5798 5797 5796 5796 5796
5827 5828 5828 5827 5827 5827 5827 5826 5825 5825 5824 5823 5823 5823 5822 5821 5820 5819 5817 5816 5814 5813 5812 5811 5809 5808 5808 5806 5805 5804 5803 5802 5801 5800 5798 5797 5796 5795 5794 5793 5792 5792 5791 5791
5823 5823 5824 5823 5822 5822 5822 5822 5821 5820 5819 5819 5818 5821 5818 5816 5815 5814 5813 5811 5810 5809 5807 5806 5805 5804 5803 5801 5800 5799 5798 5797 5795 5794 5793 5792 5791 5790 5789 5789 5788 5787 5786 5786
5818 5818 5818 5818 5818 5817 5817 5817 5816 5816 5815 5814 5813 5817 5813 5811 5809 5808 5807 5806 5805 5804 5802 5801 5800 5799 5797 5796 5795 5794 5792 5791 5790 5789 5788 5787 5786 5784 5784 5783 5782 5782 5781 5781
5813 5813 5813 5813 5815 5813 5812 5812 5811 5811 5810 5809 5808 5811 5807 5806 5804 5803 5802 5801 5799 5798 5797 5796 5795 5793 5792 5791 5790 5788 5787 5785 5784 5783 5782 5781 5780 5779 5778 5777 5777 5776 5775 5775
5808 5808 5809 5809 5808 5807 5806 5806 5805 5805 5804 5803 5803 5804 5802 5800 5799 5798 5797 5795 5794 5793 5792 5790 5789 5788 5787 5785 5784 5783 5782 5780 5779 5778 5777 5775 5774 5773 5772 5771 5771 5770 5769 5769
5803 5803 5802 5802 5801 5801 5800 5800 5800 5799 5798 5797 5797 5797 5796 5794 5793 5792 5791 5789 5788 5787 5785 5784 5783 5782 5781 5780 5779 5777 5776 5775 5773 5772 5771 5769 5768 5767 5766 5765 5764 5763 5763 5763
5797 5797 5796 5796 5795 5794 5794 5794 5793 5793 5792 5791 5790 5790 5789 5787 5786 5785 5784 5783 5782 5781 5779 5778 5777 5776 5775 5774 5773 5772 5770 5769 5768 5766 5765 5763 5762 5761 5760 5759 5758 5757 5756 5756
5791 5790 5790 5790 5789 5788 5788 5789 5787 5786 5785 5784 5783 5783 5781 5780 5779 5778 5777 5776 5775 5774 5773 5772 5771 5770 5769 5768 5767 5766 5764 5763 5762 5760 5759 5757 5756 5755 5754 5753 5751 5750 5749 5749
5786 5784 5783 5783 5783 5782 5784 5781 5780 5779 5778 5777 5776 5775 5774 5773 5772 5771 5770 5769 5768 5767 5766 5765 5764 5763 5762 5761 5760 5759 5757 5756 5755 5754 5752 5751 5750 5749 5748 5747 5745 5744 5743 5742
5780 5779 5777 5776 5775 5775 5776 5774 5773 5772 5771 5770 5769 5768 5766 5765 5764 5764 5762 5761 5761 5760 5759 5758 5757 5756 5755 5754 5753 5751 5750 5749 5748 5747 5746 5745 5744 5742 5741 5740 5739 5737 5736 5735
5774 5772 5772 5770 5769 5768 5770 5768 5766 5765 5764 5763 5762 5760 5759 5758 5757 5757 5755 5754 5753 5752 5751 5750 5749 5748 5748 5747 5746 5744 5743 5742 5741 5740 5739 5737 5736 5735 5734 5733 5731 5730 5729 5728
5768 5766 5765 5764 5762 5762 5762 5761 5759 5759 5758 5756 5754 5753 5751 5750 5749 5749 5748 5747 5746 5745 5744 5743 5742 5741 5740 5739 5738 5737 5736 5734 5733 5732 5731 5730 5729 5727 5726 5725 5724 5723 5722 5720
5761 5760 5759 5757 5756 5758 5755 5753 5753 5752 5750 5748 5746 5745 5743 5742 5741 5740 5740 5739 5738 5737 5736 5735 5734 5733 5732 5731 5730 5729 5727 5726 5725 5724 5723 5722 5721 5720 5718 5717 5716 5715 5714 5712
5754 5754 5752 5751 5752 5749 5747 5746 5744 5743 5741 5740 5738 5737 5735 5734 5733 5732 5731 5730 5729 5728 5727 5726 5725 5724 5723 5722 5721 5720 5719 5718 5716 5716 5715 5713 5712 5711 5710 5709 5708 5707 5706 5704
5748 5746 5744 5743 5743 5741 5740 5738 5736 5735 5733 5732 5730 5728 5727 5725 5724 5723 5722 5721 5720 5719 5718 5717 5716 5715 5714 5713 5712 5711 5710 5708 5708 5707 5706 5705 5704 5703 5701 5700 5699 5698 5697 5696
5740 5738 5737 5736 5735 5734 5732 5730 5729 5727 5725 5723 5722 5720 5718 5716 5715 5714 5713 5712 5711 5710 5709 5708 5707 5706 5705 5704 5702 5701 5700 5699 5698 5698 5697 5696 5695 5694 5692 5691 5690 5689 5688 5687
5733 5731 5730 5729 5727 5726 5725 5723 5721 5719 5717 5716 5714 5712 5710 5708 5706 5704 5703 5702 5701 5701 5700 5699 5698 5696 5695 5694 5693 5692 5690 5689 5689 5688 5687 5686 5685 5684 5683 5682 5681 5679 5679 5678